CW3783 Weather Reports


Display with metric or nautical units.
time (UTC)temp
F
wind
direction
speed
MPH
gust
MPH
rain 1hr
in
rain 24hr
in
rain mn
in
humidity
%
barometer
mb
20260505192803 84 206 14.0 24.0 0.00 0.00 0.00 30 1007.4
20260505191303 84 217 12.0 22.0 0.00 0.00 0.00 31 1007.5
20260505190804 84 236 9.0 14.0 0.00 0.00 0.00 31 1007.5
20260505190304 83 182 9.0 25.0 0.00 0.00 0.00 32 1007.5
20260505185804 83 189 16.0 29.0 0.00 0.00 0.00 32 1007.5
20260505185305 83 196 14.0 29.0 0.00 0.00 0.00 33 1007.6
20260505184803 83 176 15.0 26.0 0.00 0.00 0.00 32 1007.8
20260505184303 84 189 10.0 20.0 0.00 0.00 0.00 33 1007.9
20260505183304 84 197 9.0 18.0 0.00 0.00 0.00 34 1008.1
20260505182803 83 217 7.0 14.0 0.00 0.00 0.00 36 1008.1
20260505182306 83 197 14.0 25.0 0.00 0.00 0.00 35 1008.2
20260505181803 83 187 13.0 20.0 0.00 0.00 0.00 35 1008.3
20260505181304 83 197 13.0 24.0 0.00 0.00 0.00 35 1008.5
20260505180804 83 188 14.0 24.0 0.00 0.00 0.00 34 1008.5
20260505180303 83 190 7.0 16.0 0.00 0.00 0.00 34 1008.5
20260505174804 83 191 9.0 21.0 0.00 0.00 0.00 32 1008.5
20260505174303 83 197 13.0 26.0 0.00 0.00 0.00 32 1008.6
20260505172804 82 209 12.0 22.0 0.00 0.00 0.00 33 1008.8
20260505172305 82 202 10.0 18.0 0.00 0.00 0.00 34 1008.8
20260505171804 82 185 14.0 25.0 0.00 0.00 0.00 34 1008.9
20260505170803 81 196 10.0 20.0 0.00 0.00 0.00 35 1008.9
20260505170303 81 210 10.0 20.0 0.00 0.00 0.00 36 1009.0
20260505165803 81 204 10.0 20.0 0.00 0.00 0.00 35 1009.1
20260505165306 81 191 9.0 20.0 0.00 0.00 0.00 37 1009.1
20260505164803 81 178 7.0 17.0 0.00 0.00 0.00 38 1009.1
20260505164303 81 191 10.0 20.0 0.00 0.00 0.00 38 1009.3
20260505163303 81 237 9.0 16.0 0.00 0.00 0.00 39 1009.5
20260505162805 80 198 9.0 15.0 0.00 0.00 0.00 40 1009.5
20260505162306 80 243 6.0 14.0 0.00 0.00 0.00 42 1009.5
20260505161303 80 213 8.0 15.0 0.00 0.00 0.00 42 1009.6
20260505160303 80 187 12.0 20.0 0.00 0.00 0.00 42 1009.7
20260505153303 79 208 9.0 16.0 0.00 0.00 0.00 43 1009.8
20260505152803 78 221 6.0 15.0 0.00 0.00 0.00 45 1009.8
20260505152305 78 212 5.0 10.0 0.00 0.00 0.00 45 1009.8
20260505151804 78 217 3.0 12.0 0.00 0.00 0.00 45 1009.7
20260505151304 77 162 6.0 16.0 0.00 0.00 0.00 47 1009.8
20260505150803 77 148 8.0 13.0 0.00 0.00 0.00 46 1009.8
20260505150303 76 237 5.0 13.0 0.00 0.00 0.00 45 1009.7
20260505140303 74 170 5.0 12.0 0.00 0.00 0.00 49 1010.0
20260505130303 70 211 5.0 8.0 0.00 0.00 0.00 53 1010.6
20260505124803 68 237 3.0 9.0 0.00 0.00 0.00 56 1010.4
20260505124303 68 233 3.0 9.0 0.00 0.00 0.00 56 1010.4
20260505123304 67 231 4.0 8.0 0.00 0.00 0.00 56 1010.3
20260505122804 67 238 2.0 10.0 0.00 0.00 0.00 57 1010.2
20260505122305 66 218 1.0 9.0 0.00 0.00 0.00 58 1010.3
20260505121804 66 220 5.0 12.0 0.00 0.00 0.00 58 1010.3
20260505121303 65 194 3.0 10.0 0.00 0.00 0.00 59 1010.2
20260505120803 65 231 6.0 12.0 0.00 0.00 0.00 59 1010.2
20260505120304 65 259 3.0 12.0 0.00 0.00 0.00 61 1010.1
20260505115305 64 225 7.0 12.0 0.00 0.00 0.00 61 1010.1
20260505114803 63 206 3.0 5.0 0.00 0.00 0.00 62 1010.1
20260505114303 63 219 5.0 12.0 0.00 0.00 0.00 62 1010.1
20260505113304 62 234 5.0 9.0 0.00 0.00 0.00 64 1010.0
20260505112804 62 236 4.0 9.0 0.00 0.00 0.00 64 1010.0
20260505112305 62 184 2.0 7.0 0.00 0.00 0.00 64 1010.0
20260505111804 61 227 6.0 12.0 0.00 0.00 0.00 64 1009.9
20260505111305 61 176 3.0 9.0 0.00 0.00 0.00 65 1009.8
20260505110803 61 213 4.0 12.0 0.00 0.00 0.00 65 1009.8
20260505110303 61 218 5.0 9.0 0.00 0.00 0.00 65 1009.7
20260505101804 60 212 3.0 7.0 0.00 0.00 0.00 66 1009.2
20260505101304 60 198 3.0 10.0 0.00 0.00 0.00 65 1009.3
20260505100803 60 211 4.0 10.0 0.00 0.00 0.00 65 1009.2
20260505100303 60 200 5.0 9.0 0.00 0.00 0.00 65 1009.1
20260505095304 60 233 3.0 9.0 0.00 0.00 0.00 65 1009.0
20260505094804 60 225 3.0 8.0 0.00 0.00 0.00 65 1009.0
20260505094304 60 220 3.0 9.0 0.00 0.00 0.00 65 1008.9
20260505093805 60 225 5.0 10.0 0.00 0.00 0.00 65 1009.0
20260505093303 60 226 5.0 12.0 0.00 0.00 0.00 65 1008.9
20260505092804 60 208 3.0 9.0 0.00 0.00 0.00 65 1008.9
20260505092305 60 216 5.0 10.0 0.00 0.00 0.00 65 1008.9
20260505091804 60 208 4.0 9.0 0.00 0.00 0.00 65 1008.9
20260505091304 60 236 4.0 10.0 0.00 0.00 0.00 65 1008.9
20260505090803 60 217 3.0 10.0 0.00 0.00 0.00 65 1008.9
20260505090304 60 227 4.0 12.0 0.00 0.00 0.00 65 1008.9
20260505085803 60 210 6.0 12.0 0.00 0.00 0.00 65 1009.0
20260505085305 60 211 5.0 12.0 0.00 0.00 0.00 65 1009.0
20260505084804 60 214 5.0 12.0 0.00 0.00 0.00 65 1008.9
20260505084304 60 220 4.0 10.0 0.00 0.00 0.00 65 1009.0
20260505083804 60 214 3.0 8.0 0.00 0.00 0.00 65 1008.9
20260505083304 60 209 4.0 8.0 0.00 0.00 0.00 64 1008.9
20260505081804 60 190 4.0 10.0 0.00 0.00 0.00 65 1008.9
20260505081303 60 204 4.0 10.0 0.00 0.00 0.00 65 1008.9
20260505080803 60 219 5.0 9.0 0.00 0.00 0.00 64 1008.9
20260505075803 60 202 5.0 9.0 0.00 0.00 0.00 64 1008.9
20260505074803 60 199 3.0 9.0 0.00 0.00 0.00 64 1008.9
20260505074303 61 202 4.0 8.0 0.00 0.00 0.00 64 1008.9
20260505073804 61 196 5.0 9.0 0.00 0.00 0.00 63 1008.9
20260505073304 61 217 3.0 9.0 0.00 0.00 0.00 63 1008.8
20260505072803 61 203 4.0 7.0 0.00 0.00 0.00 63 1008.7
20260505072305 61 210 3.0 8.0 0.00 0.00 0.00 63 1008.8
20260505071803 61 198 2.0 5.0 0.00 0.00 0.00 62 1008.7
20260505070804 62 216 4.0 6.0 0.00 0.00 0.00 62 1008.7
20260505070304 62 208 3.0 9.0 0.00 0.00 0.00 61 1008.7
20260505065804 62 198 5.0 10.0 0.00 0.00 0.00 61 1008.7
20260505065304 62 205 3.0 7.0 0.00 0.00 0.00 61 1008.6
20260505064803 62 220 4.0 8.0 0.00 0.00 0.00 61 1008.6
20260505064304 62 209 5.0 9.0 0.00 0.00 0.00 61 1008.6
20260505063804 62 223 4.0 8.0 0.00 0.00 0.00 61 1008.6
20260505063303 62 232 4.0 8.0 0.00 0.00 0.00 61 1008.6
20260505062304 62 213 4.0 10.0 0.00 0.00 0.00 61 1008.6
20260505061804 62 236 3.0 9.0 0.00 0.00 0.00 62 1008.6
20260505061304 62 239 4.0 7.0 0.00 0.00 0.00 61 1008.7
20260505060803 62 203 2.0 8.0 0.00 0.00 0.00 61 1008.7
20260505055803 62 229 3.0 8.0 0.00 0.00 0.00 61 1008.7
20260505055304 62 233 3.0 7.0 0.00 0.00 0.00 61 1008.7
20260505054803 62 237 5.0 8.0 0.00 0.00 0.00 60 1008.8
20260505054303 62 234 3.0 8.0 0.00 0.00 0.00 60 1008.8
20260505053803 62 207 5.0 8.0 0.00 0.00 0.00 60 1009.1
20260505053304 62 191 3.0 8.0 0.00 0.00 0.00 60 1009.1
20260505052804 62 210 4.0 6.0 0.00 0.00 0.00 60 1008.9
20260505052304 62 204 4.0 6.0 0.00 0.00 0.00 60 1008.9
20260505051803 62 214 3.0 7.0 0.00 0.00 0.00 60 1008.9
20260505051304 62 216 4.0 8.0 0.00 0.00 0.00 60 1009.0
20260505041303 62 199 3.0 5.0 0.00 0.00 0.00 58 1008.7
20260505040803 62 188 3.0 5.0 0.00 0.00 0.00 58 1008.7
20260505040303 63 204 3.0 5.0 0.00 0.00 0.00 57 1008.7
20260505035803 63 215 2.0 3.0 0.00 0.00 0.00 57 1008.7
20260505035304 63 220 2.0 5.0 0.00 0.00 0.00 56 1008.7
20260505034804 63 214 3.0 7.0 0.00 0.00 0.00 56 1008.7
20260505034303 63 209 3.0 3.0 0.00 0.00 0.00 56 1008.7
20260505033803 63 220 3.0 6.0 0.00 0.00 0.00 56 1008.7
20260505033304 64 206 2.0 3.0 0.00 0.00 0.00 55 1008.8
20260505032803 64 207 3.0 8.0 0.00 0.00 0.00 55 1008.7
20260505032304 64 209 3.0 7.0 0.00 0.00 0.00 55 1008.7
20260505031803 64 211 4.0 6.0 0.00 0.00 0.00 55 1008.6
20260505031303 64 216 3.0 5.0 0.00 0.00 0.00 55 1008.6
20260505030303 64 210 3.0 7.0 0.00 0.00 0.00 54 1008.5
20260505025803 64 212 3.0 6.0 0.00 0.00 0.00 54 1008.6
20260505024303 64 207 3.0 3.0 0.00 0.00 0.00 54 1008.7
20260505023303 65 217 3.0 6.0 0.00 0.00 0.00 54 1008.7
20260505022803 64 191 3.0 6.0 0.00 0.00 0.00 53 1008.6
20260505022304 65 199 3.0 6.0 0.00 0.00 0.00 53 1008.6
20260505021804 65 192 3.0 5.0 0.00 0.00 0.00 53 1008.6
20260505021303 65 198 3.0 8.0 0.00 0.00 0.00 53 1008.7
20260505020804 65 212 2.0 3.0 0.00 0.00 0.00 53 1008.7
20260505020304 65 206 2.0 3.0 0.00 0.00 0.00 53 1008.7
20260505015804 65 196 3.0 7.0 0.00 0.00 0.00 53 1008.6
20260505015303 65 201 4.0 7.0 0.00 0.00 0.00 53 1008.6
20260505014803 65 206 5.0 8.0 0.00 0.00 0.00 53 1008.5
20260505014304 65 201 3.0 8.0 0.00 0.00 0.00 53 1008.4
20260505013804 65 192 3.0 5.0 0.00 0.00 0.00 53 1008.4
20260505013304 65 183 3.0 5.0 0.00 0.00 0.00 53 1008.2
20260505012803 65 196 2.0 5.0 0.00 0.00 0.00 53 1008.3
20260505012304 66 185 3.0 7.0 0.00 0.00 0.00 52 1008.3
20260505011803 66 193 3.0 5.0 0.00 0.00 0.00 52 1008.3
20260505011303 66 190 3.0 6.0 0.00 0.00 0.00 51 1008.3
20260505010803 66 194 3.0 8.0 0.00 0.00 0.00 51 1008.2
20260505010304 67 183 3.0 5.0 0.00 0.00 0.00 50 1008.2
20260505005804 67 204 3.0 3.0 0.00 0.00 0.00 50 1008.2
20260505005304 67 193 3.0 5.0 0.00 0.00 0.00 50 1008.2
20260505004303 68 185 3.0 6.0 0.00 0.00 0.00 48 1008.1
20260505003803 68 161 2.0 3.0 0.00 0.00 0.00 48 1008.0
20260505003304 68 181 2.0 3.0 0.00 0.00 0.00 48 1008.1
20260505002304 68 205 3.0 5.0 0.00 0.00 0.00 47 1008.1
20260505001804 68 194 3.0 8.0 0.00 0.00 0.00 47 1008.1
20260505001303 69 177 5.0 9.0 0.00 0.00 0.00 46 1007.9
20260505000803 69 182 5.0 9.0 0.00 0.00 0.00 46 1007.9
20260504235803 69 195 5.0 8.0 0.00 0.00 0.00 45 1007.8
20260504235304 70 180 5.0 9.0 0.00 0.00 0.00 44 1007.8
20260504234804 70 168 5.0 8.0 0.00 0.00 0.00 44 1007.8
20260504232803 71 185 5.0 10.0 0.00 0.00 0.00 43 1007.9
20260504232304 71 177 8.0 13.0 0.00 0.00 0.00 42 1007.9
20260504231303 72 186 5.0 12.0 0.00 0.00 0.00 41 1007.9
20260504230803 72 195 5.0 12.0 0.00 0.00 0.00 41 1007.9
20260504230303 73 183 9.0 17.0 0.00 0.00 0.00 40 1007.9
20260504225804 73 194 10.0 17.0 0.00 0.00 0.00 40 1007.9
20260504225304 73 182 7.0 12.0 0.00 0.00 0.00 39 1007.9
20260504224803 74 192 7.0 15.0 0.00 0.00 0.00 39 1007.8
20260504224304 74 155 6.0 16.0 0.00 0.00 0.00 39 1007.8
20260504223304 75 171 9.0 15.0 0.00 0.00 0.00 36 1007.7
20260504222803 75 163 8.0 17.0 0.00 0.00 0.00 34 1007.5
20260504222305 76 188 8.0 14.0 0.00 0.00 0.00 33 1007.6
20260504221804 76 202 6.0 12.0 0.00 0.00 0.00 34 1007.6
20260504221303 76 205 9.0 15.0 0.00 0.00 0.00 33 1007.6
20260504220303 76 190 9.0 15.0 0.00 0.00 0.00 33 1007.5
20260504215803 76 208 9.0 20.0 0.00 0.00 0.00 33 1007.6
20260504215305 76 195 9.0 17.0 0.00 0.00 0.00 33 1007.6
20260504214803 76 205 11.0 18.0 0.00 0.00 0.00 33 1007.7
20260504214304 76 192 7.0 14.0 0.00 0.00 0.00 33 1007.7
20260504213803 76 196 6.0 10.0 0.00 0.00 0.00 33 1007.7
20260504213303 76 184 2.0 8.0 0.00 0.00 0.00 34 1007.7
20260504212803 76 196 6.0 14.0 0.00 0.00 0.00 34 1007.8
20260504212304 76 205 11.0 18.0 0.00 0.00 0.00 33 1007.9
20260504211304 77 183 7.0 17.0 0.00 0.00 0.00 33 1007.8
20260504210803 77 199 6.0 13.0 0.00 0.00 0.00 33 1007.9
20260504210304 77 211 5.0 10.0 0.00 0.00 0.00 34 1007.8
20260504205803 77 188 6.0 12.0 0.00 0.00 0.00 33 1007.9
20260504204803 77 190 9.0 17.0 0.00 0.00 0.00 32 1007.8
20260504204303 77 163 4.0 15.0 0.00 0.00 0.00 34 1007.9
20260504203803 77 184 12.0 20.0 0.00 0.00 0.00 33 1008.0
20260504202803 77 176 7.0 14.0 0.00 0.00 0.00 33 1008.2
20260504201804 77 209 5.0 12.0 0.00 0.00 0.00 34 1008.2
20260504201303 77 200 5.0 18.0 0.00 0.00 0.00 34 1008.3
20260504200303 77 209 7.0 15.0 0.00 0.00 0.00 34 1008.3
20260504195803 77 198 7.0 14.0 0.00 0.00 0.00 33 1008.4
20260504195304 77 187 10.0 18.0 0.00 0.00 0.00 34 1008.4
20260504194804 76 292 2.0 8.0 0.00 0.00 0.00 36 1008.5
20260504194303 76 224 10.0 15.0 0.00 0.00 0.00 34 1008.7
20260504193303 76 181 12.0 18.0 0.00 0.00 0.00 34 1008.9